Lexington Weather

Lexington, Massachusetts, USA

34°F
4/16/2021 10:49am 
  • Lexington Conditions: Snow, Fog, Overcast
  • Temperature: 34.0°F / 1.1°CWarmer 0.2°F than last hour.
  • Dew Point: 32.7°FIncreased 0.2°Fsince last hour.
  • Relative Humidity: 95
  • Wind: Wind from N N 3 mph, 10-min avg: 1 mph, gust: 4 mph
  • Barometer: 29.47 inFalling 0.03  inHg/hr Falling Slowly
  • Visibility: ½ mile
  • Snow Today: 1.3 in
  •   

Regional Weather Roundup
for Boston / Norton, MA

        
000
ASUS41 KBOX 100704
RWRBOX

REGIONAL WEATHER ROUNDUP
NATIONAL WEATHER SERVICE BOSTON/NORTON MA
300 AM EDT SAT APR 10 2021

NOTE:  "FAIR" INDICATES FEW OR NO CLOUDS BELOW 12,000 FEET WITH NO 
SIGNIFICANT WEATHER AND/OR OBSTRUCTIONS TO VISIBILITY.

MAZALL-100800-
EASTERN MASSACHUSETTS
  
CITY           SKY/WX    TMP DP  RH WIND       PRES   REMARKS
BOSTON         MOCLDY    49  42  77 SW10      30.05F                  
BEVERLY        NOT AVBL                                               
LAWRENCE       PTCLDY    48  42  80 S6        30.05F                  
BEDFORD        MOCLDY    47  42  83 SW5       30.04F                  
BLUE HILL        N/A     44  42  93 SW12      30.03F                  
NORWOOD        PTCLDY    44  41  89 S3        30.06F                  
MARSHFIELD     PTCLDY    45  45 100 SW7G14    30.05F                  
PLYMOUTH       CLOUDY    42  41  96 SW9       30.06F FOG              
TAUNTON        CLOUDY    44  43  96 CALM      30.08F                  
NEW BEDFORD    CLOUDY    43  42  97 SW6       30.08F FOG              
$$

MAZALL-100800-
CAPE COD AND THE ISLANDS
  
CITY           SKY/WX    TMP DP  RH WIND       PRES   REMARKS
FALMOUTH       FOG       41  41 100 W9        30.08F VSB 1/2          
HYANNIS        PTCLDY    43  41  93 SW12      30.06F                  
CHATHAM        CLOUDY    43  42  97 SW6       30.08F FOG              
PROVINCETOWN   FOG       42  41  96 S7        30.07F VSB 3/4          
NANTUCKET      FOG       41  41 100 W10       30.09F VSB 1/2          
MARTHAS VNYRD  FOG       41  41 100 SW5       30.09F VSB 1/2          
$$
 
MAZALL-100800-
CENTRAL AND WESTERN MASSACHUSETTS
  
CITY           SKY/WX    TMP DP  RH WIND       PRES   REMARKS
WORCESTER      CLOUDY    51  41  68 SW13      30.05S                  
FITCHBURG      MOCLDY    49  44  83 CALM      30.04F                  
ORANGE         CLOUDY    52  44  74 S8        30.05F                  
SPRINGFIELD    CLOUDY    52  43  71 S5        30.05S                  
WESTFIELD      CLOUDY    52  44  74 S6        30.05F                  
NORTH ADAMS    MOCLDY    55  42  61 S3        30.04S                  
PITTSFIELD     CLOUDY    53  41  63 CALM      30.04S                  
$$
 
RIZALL-100800-
RHODE ISLAND
  
CITY           SKY/WX    TMP DP  RH WIND       PRES   REMARKS
PROVIDENCE     CLOUDY    45  43  93 S5        30.09F                  
NEWPORT        CLOUDY    43  43 100 CALM      30.08F                  
BLOCK ISLAND   LGT RAIN  44  44 100 SW10      30.11S VSB 1/4          
SMITHFIELD     CLOUDY    44  44 100 VRB3      30.07F                  
WESTERLY       CLOUDY    44  43  96 SW6       30.10S                  
$$
 
CTZALL-100800-
CONNECTICUT
  
CITY           SKY/WX    TMP DP  RH WIND       PRES   REMARKS
BRADLEY INTL   CLOUDY    52  43  71 S7        30.06F                  
HARTFORD       CLOUDY    52  43  71 S6        30.07F                  
BRIDGEPORT     CLOUDY    49  45  86 SW8       30.10F                  
DANBURY        CLOUDY    52  44  74 SW3       30.09F                  
GROTON         CLOUDY    46  45  96 SW6       30.10S                  
NEW HAVEN      CLOUDY    49  46  90 SW5       30.09F                  
CHESTER        CLOUDY    46  46 100 S3        30.08F                  
MERIDEN        CLOUDY    48  43  82 S7        30.09F                  
WILLIMANTIC    CLOUDY    49  43  80 S6        30.08F                  
OXFORD         CLOUDY    49  47  93 W3        30.09S                  
$$

MEZ002-015-021-024-NHZ003-005-008-011-012-014-VTZ005-008-100800-
NORTHERN NEW ENGLAND
  
CITY           SKY/WX    TMP DP  RH WIND       PRES   REMARKS
PORTLAND ME    CLEAR     43  41  93 CALM      30.03F                  
BANGOR ME      CLEAR     43  40  89 S3        30.01F                  
CONCORD NH     PTCLDY    43  39  86 CALM      30.03F                  
MANCHESTER NH  MOCLDY    50  42  74 CALM      30.02F                  
NASHUA NH      MOCLDY    46  45  96 CALM      30.04F                  
PORTSMOUTH NH  PTCLDY    44  42  94 CALM      30.04F                  
JAFFREY NH     MOCLDY    47  42  83 CALM      30.04F                  
KEENE NH       CLOUDY    52  45  77 CALM      30.04F                  
BURLINGTON VT  CLOUDY    63  41  44 S8        29.98S                  
MT. WASHINGTON PTCLDY    41  34  75 SE7         N/A                   
$$

NYZ052-076-100800-
EASTERN NEW YORK
  
CITY           SKY/WX    TMP DP  RH WIND       PRES   REMARKS
ALBANY         MOCLDY    52  43  71 S8        30.04F                  
NEW YORK CITY  CLOUDY    51  45  79 SW5       30.09F                  
$$
 
ANZALL-100800-
MARINE OBSERVATIONS
  
STATION/POSITION TIME  TEMP    WIND        PRES    VSBY  WAVE
                       AIR SEA DIR/SP/G                  HT/PER
                 (UTC) (F)     (DEG/KT/KT) (MB)    (MI)  (FT/S)
BOSTON BUOY      0640   46 45  220/  8/ 10 1018.1F
BUZZARDS BAY     0600          230/ 11/ 12 1020.4F
NANTUCKET SOUND  0640      46                N/A
MASS BAY-STELLWA 0604   46     220/ 12/ 14 1016.9F  1 7/8  4/11
ISLE OF SHOALS   0600   49     230/ 10/ 11 1016.8F
S OF BLOCK IS    0626      46                N/A           3/11
$$

......................KEY.........................
  SKY/WX - SKY CONDITION/PRESENT WEATHER
  TMP    - TEMPERATURE IN FAHRENHEIT
  DWPT   - DEWPOINT IN FAHRENHEIT
  RH     - RELATIVE HUMIDITY IN PERCENT
  WIND   - DIRECTION AND SPEED IN MPH
  PRES   - MEAN SEA LEVEL PRESSURE IN INCHES OF HG
  WCI    - WIND CHILL INDEX
  VSB    - VISIBILITY IN MILES
  HX     - HEAT INDEX
  TC     - TEMPERATURE IN CELSIUS
  VRB    - VARIABLE WIND DIRECTION
  N/A    - NOT AVAILABLE
  
      

Other recent Regional Weather Roundups

Fri Apr 16, 10:05am

Fri Apr 16, 9:04am

Fri Apr 16, 8:04am

Fri Apr 16, 7:04am

Fri Apr 16, 6:04am

Fri Apr 16, 5:04am

Fri Apr 16, 4:04am

Fri Apr 16, 3:04am

Fri Apr 16, 2:04am

Fri Apr 16, 1:04am

Fri Apr 16, 12:04am

Thu Apr 15, 11:05pm

Thu Apr 15, 10:04pm

Thu Apr 15, 9:04pm

Thu Apr 15, 8:04pm

Thu Apr 15, 7:05pm

Thu Apr 15, 6:04pm

Thu Apr 15, 5:05pm

Thu Apr 15, 4:04pm

Thu Apr 15, 3:05pm

Thu Apr 15, 2:04pm

Thu Apr 15, 1:05pm

Thu Apr 15, 12:04pm

Thu Apr 15, 11:04am

Thu Apr 15, 10:05am

Thu Apr 15, 9:04am

Thu Apr 15, 8:04am

Thu Apr 15, 7:04am

Thu Apr 15, 6:04am

Thu Apr 15, 5:04am

Thu Apr 15, 4:04am

Thu Apr 15, 3:04am

Thu Apr 15, 2:04am

Thu Apr 15, 1:04am

Thu Apr 15, 12:04am

Wed Apr 14, 11:04pm

Wed Apr 14, 10:04pm

Wed Apr 14, 9:04pm

Wed Apr 14, 8:04pm

Wed Apr 14, 7:04pm

Wed Apr 14, 6:04pm

Wed Apr 14, 5:05pm

Wed Apr 14, 4:04pm

Wed Apr 14, 3:05pm

Wed Apr 14, 2:04pm

Wed Apr 14, 1:05pm

Wed Apr 14, 12:04pm

Wed Apr 14, 11:04am

Wed Apr 14, 10:04am

Wed Apr 14, 9:04am

Wed Apr 14, 8:04am

Wed Apr 14, 7:04am

Wed Apr 14, 6:04am

Wed Apr 14, 5:04am

Wed Apr 14, 4:04am

Wed Apr 14, 3:04am

Wed Apr 14, 2:04am

Wed Apr 14, 1:04am

Wed Apr 14, 12:04am

Tue Apr 13, 11:04pm

Tue Apr 13, 10:05pm

Tue Apr 13, 9:05pm

Tue Apr 13, 8:05pm

Tue Apr 13, 7:04pm

Tue Apr 13, 6:04pm

Tue Apr 13, 5:05pm

Tue Apr 13, 4:04pm

Tue Apr 13, 3:04pm

Tue Apr 13, 2:05pm

Tue Apr 13, 1:04pm

Tue Apr 13, 12:05pm

Tue Apr 13, 11:05am

Tue Apr 13, 10:04am

Tue Apr 13, 9:04am

Tue Apr 13, 8:04am

Tue Apr 13, 7:04am

Tue Apr 13, 6:04am

Tue Apr 13, 5:04am

Tue Apr 13, 4:04am

Tue Apr 13, 3:04am

Tue Apr 13, 2:04am

Tue Apr 13, 1:04am

Tue Apr 13, 12:05am

Mon Apr 12, 11:04pm

Mon Apr 12, 10:04pm

Mon Apr 12, 9:04pm

Mon Apr 12, 8:04pm

Mon Apr 12, 7:05pm

Mon Apr 12, 6:04pm

Mon Apr 12, 5:04pm

Mon Apr 12, 4:04pm

Mon Apr 12, 3:05pm

Mon Apr 12, 2:04pm

Mon Apr 12, 1:05pm

Mon Apr 12, 12:04pm

Mon Apr 12, 11:04am

Mon Apr 12, 10:04am

Mon Apr 12, 9:04am

Mon Apr 12, 8:04am

Mon Apr 12, 7:04am

Mon Apr 12, 6:04am

Mon Apr 12, 5:04am

Mon Apr 12, 4:04am

Mon Apr 12, 3:04am

Mon Apr 12, 2:04am

Mon Apr 12, 1:05am

Mon Apr 12, 12:04am

Sun Apr 11, 11:04pm

Sun Apr 11, 10:04pm

Sun Apr 11, 9:04pm

Sun Apr 11, 8:04pm

Sun Apr 11, 7:04pm

Sun Apr 11, 6:05pm

Sun Apr 11, 5:05pm

Sun Apr 11, 4:04pm

Sun Apr 11, 3:05pm

Sun Apr 11, 2:05pm

Sun Apr 11, 1:05pm

Sun Apr 11, 12:04pm

Sun Apr 11, 11:05am

Sun Apr 11, 10:05am

Sun Apr 11, 9:04am

Sun Apr 11, 8:04am

Sun Apr 11, 7:04am

Sun Apr 11, 6:04am

Sun Apr 11, 5:04am

Sun Apr 11, 4:04am

Sun Apr 11, 3:04am

Sun Apr 11, 2:04am

Sun Apr 11, 1:05am

Sun Apr 11, 12:04am

Sat Apr 10, 11:05pm

Sat Apr 10, 10:04pm

Sat Apr 10, 9:04pm

Sat Apr 10, 8:04pm

Sat Apr 10, 7:05pm

Sat Apr 10, 6:04pm

Sat Apr 10, 5:04pm

Sat Apr 10, 4:04pm

Sat Apr 10, 3:04pm

Sat Apr 10, 2:05pm

Sat Apr 10, 1:04pm

Sat Apr 10, 12:04pm

Sat Apr 10, 11:04am

Sat Apr 10, 10:04am

Sat Apr 10, 9:04am

Sat Apr 10, 8:04am

Sat Apr 10, 7:04am

Sat Apr 10, 6:04am

Sat Apr 10, 5:04am

Sat Apr 10, 4:04am

Sat Apr 10, 2:04am

Sat Apr 10, 1:05am

Sat Apr 10, 12:04am

Fri Apr 9, 11:04pm

Fri Apr 9, 10:05pm

Fri Apr 9, 9:04pm

Fri Apr 9, 8:05pm

Fri Apr 9, 7:05pm

Fri Apr 9, 6:04pm

Fri Apr 9, 5:04pm

Fri Apr 9, 4:05pm

Fri Apr 9, 3:05pm

Fri Apr 9, 2:04pm

Fri Apr 9, 1:04pm

Fri Apr 9, 12:04pm

Fri Apr 9, 11:05am

Meta data:

ID: 8c18e16f-9617-4b0b-9c1b-666dd22a81f1
Link: https://api.weather.gov/products/8c18e16f-9617-4b0b-9c1b-666dd22a81f1